Gwinner, ND

6:56 PM CDT on April 23, 2017 (GMT -0500)
Gwinner-melroe

Weather History for KGWR - June, 2013

Change the Weather History Date:

Saturday, June 15, 2013

  Actual Average (KP67) Record (KP67)
Temperature  
Mean Temperature 71 °F -  
Max Temperature 82 °F 76 °F 79 °F (1997)
Min Temperature 60 °F 55 °F 60 °F (1998)
Cooling Degree Days 6    
Growing Degree Days 21 (Base 50)    
Moisture  
Dew Point 51 °F    
Average Humidity 54    
Maximum Humidity 83    
Minimum Humidity 25    
Precipitation  
Precipitation 0.01 in - - ()
Sea Level Pressure  
Sea Level Pressure 29.91 in    
Wind  
Wind Speed 11 mph (West)    
Max Wind Speed 24 mph    
Max Gust Speed 30 mph    
Visibility 9 miles    
Events      
Averages and records for this station are not official NWS values.
T = Trace of Precipitation, MM = Missing Value Source: NWS Daily Summary

Daily Weather History Graph

Daily Weather History Graph

Search for Another Location

Airport or City:

Trip Planner

Search our weather history database for the weather conditions in past years. The results will help you decide how hot, cold, wet, or windy it might be!

Date:

Astronomy

Jun. 15, 2013 Rise Set
Actual Time 5:38 AM CDT 9:24 PM CDT
Civil Twilight 4:59 AM CDT 10:03 PM CDT
Nautical Twilight 4:07 AM CDT 10:55 PM CDT
Astronomical Twilight 2:53 AM CDT 12:09 AM CDT
Moon 12:35 PM CDT (6/15) 12:41 AM CDT (6/15)
Length of Visible Light 17h 03m
Length of Day
15h 45m
Waxing Crescent, 40% of the Moon is Illuminated
Jun 15
Waxing Crescent
Jun 16
First Quarter
Jun 23
Full
Jun 29
Last Quarter
Jul 8
New

Hourly Weather History & Observations

Time (CDT) Temp. Dew Point Humidity Pressure Visibility Wind Dir Wind Speed Gust Speed Precip Events Conditions
12:15 AM 69.8 °F 64.4 °F 83% 29.85 in 10.0 mi WNW 8.1 mph - 0.00 in   Clear
12:35 AM 69.8 °F 64.4 °F 83% 29.86 in 10.0 mi WNW 11.5 mph - 0.00 in   Clear
12:55 AM 69.8 °F 64.4 °F 83% 29.86 in 10.0 mi WNW 12.7 mph - 0.00 in   Clear
1:15 AM 69.8 °F 64.4 °F 83% 29.87 in 10.0 mi WNW 11.5 mph - 0.00 in   Clear
1:35 AM 69.8 °F 60.8 °F 73% 29.87 in 10.0 mi NW 12.7 mph - 0.00 in   Clear
1:55 AM 68.0 °F 60.8 °F 78% 29.88 in 10.0 mi WNW 9.2 mph - 0.00 in   Clear
2:15 AM 66.2 °F 57.2 °F 73% 29.89 in 10.0 mi NW 15.0 mph - 0.00 in   Clear
2:35 AM 66.2 °F 57.2 °F 73% 29.88 in 10.0 mi NNW 17.3 mph 24.2 mph 0.00 in   Clear
2:55 AM 64.4 °F 55.4 °F 73% 29.88 in 10.0 mi NNW 13.8 mph - 0.00 in   Clear
3:15 AM 62.6 °F 55.4 °F 77% 29.91 in 10.0 mi NW 8.1 mph - 0.00 in   Clear
3:35 AM 62.6 °F 53.6 °F 72% 29.92 in 10.0 mi NW 11.5 mph - 0.00 in   Clear
3:55 AM 62.6 °F 53.6 °F 72% 29.91 in 10.0 mi NW 10.4 mph - 0.00 in   Clear
4:15 AM 62.6 °F 53.6 °F 72% 29.92 in 10.0 mi NW 6.9 mph - 0.00 in   Clear
4:35 AM 60.8 °F 53.6 °F 77% 29.91 in 10.0 mi NNW 6.9 mph - 0.00 in   Clear
4:55 AM 60.8 °F 53.6 °F 77% 29.91 in 10.0 mi NW 6.9 mph - 0.00 in   Clear
5:15 AM 60.8 °F 53.6 °F 77% 29.92 in 10.0 mi NW 12.7 mph - 0.00 in   Clear
5:35 AM 62.6 °F 51.8 °F 68% 29.93 in 10.0 mi NW 13.8 mph - 0.00 in   Clear
5:55 AM 62.6 °F 51.8 °F 68% 29.95 in 10.0 mi WNW 11.5 mph - 0.00 in   Clear
6:15 AM 60.8 °F 53.6 °F 77% 29.95 in 10.0 mi West 9.2 mph - 0.00 in   Partly Cloudy
6:35 AM 60.8 °F 53.6 °F 77% 29.95 in 10.0 mi West 6.9 mph - 0.00 in   Clear
6:55 AM 60.8 °F 55.4 °F 82% 29.95 in 10.0 mi West 4.6 mph - 0.00 in   Clear
7:15 AM 60.8 °F 55.4 °F 82% 29.95 in 5.0 mi West 6.9 mph - 0.00 in   Mostly Cloudy
7:35 AM 62.6 °F 55.4 °F 77% 29.95 in 5.0 mi West 6.9 mph - 0.00 in   Mostly Cloudy
7:55 AM 62.6 °F 55.4 °F 77% 29.94 in 5.0 mi Calm Calm - 0.01 in   Mostly Cloudy
8:15 AM 62.6 °F 55.4 °F 77% 29.94 in 10.0 mi West 5.8 mph - 0.00 in   Scattered Clouds
8:35 AM 62.6 °F 57.2 °F 82% 29.95 in 10.0 mi West 8.1 mph - 0.00 in   Partly Cloudy
8:55 AM 64.4 °F 55.4 °F 73% 29.96 in 10.0 mi West 8.1 mph - 0.00 in   Mostly Cloudy
9:15 AM 64.4 °F 53.6 °F 68% 29.94 in 10.0 mi West 3.5 mph - 0.00 in   Mostly Cloudy
9:35 AM 66.2 °F 53.6 °F 64% 29.95 in 10.0 mi West 3.5 mph - 0.00 in   Partly Cloudy
9:55 AM 68.0 °F 53.6 °F 60% 29.94 in 10.0 mi Calm Calm - 0.00 in   Partly Cloudy
10:15 AM 69.8 °F 55.4 °F 60% 29.95 in 10.0 mi SW 4.6 mph - 0.00 in   Partly Cloudy
10:35 AM 71.6 °F 53.6 °F 53% 29.96 in 9.0 mi WSW 8.1 mph - 0.00 in   Partly Cloudy
10:55 AM 69.8 °F 51.8 °F 53% 29.95 in 9.0 mi SSW 5.8 mph - 0.00 in   Partly Cloudy
11:15 AM 69.8 °F 55.4 °F 60% 29.97 in 8.0 mi WSW 8.1 mph - 0.00 in   Scattered Clouds
11:35 AM 69.8 °F 55.4 °F 60% 29.97 in 9.0 mi SW 8.1 mph - 0.00 in   Partly Cloudy
11:55 AM 69.8 °F 53.6 °F 56% 29.96 in 9.0 mi SW 6.9 mph - 0.00 in   Partly Cloudy
12:15 PM 71.6 °F 51.8 °F 50% 29.95 in 10.0 mi SSW 10.4 mph - 0.00 in   Clear
12:35 PM 73.4 °F 50.0 °F 44% 29.95 in 9.0 mi SW 12.7 mph 17.3 mph 0.00 in   Clear
12:55 PM 73.4 °F 50.0 °F 44% 29.95 in 7.0 mi SW 11.5 mph - 0.00 in   Clear
1:15 PM 75.2 °F 48.2 °F 38% 29.94 in 9.0 mi WSW 9.2 mph - 0.00 in   Clear
1:35 PM 77.0 °F 46.4 °F 34% 29.93 in 8.0 mi WSW 10.4 mph - 0.00 in   Clear
1:55 PM 77.0 °F 48.2 °F 36% 29.93 in 8.0 mi WSW 10.4 mph - 0.00 in   Clear
2:15 PM 78.8 °F 46.4 °F 32% 29.92 in 8.0 mi WSW 13.8 mph 20.7 mph 0.00 in   Clear
2:35 PM 78.8 °F 44.6 °F 30% 29.92 in 6.0 mi WSW 15.0 mph 21.9 mph 0.00 in   Clear
2:55 PM 80.6 °F 46.4 °F 30% 29.91 in 9.0 mi WSW 19.6 mph 28.8 mph 0.00 in   Clear
3:15 PM 80.6 °F 46.4 °F 30% 29.91 in 10.0 mi WSW 20.7 mph - 0.00 in   Clear
3:35 PM 80.6 °F 46.4 °F 30% 29.90 in 9.0 mi WSW 20.7 mph 25.3 mph 0.00 in   Clear
3:55 PM 80.6 °F 46.4 °F 30% 29.89 in 9.0 mi West 20.7 mph 28.8 mph 0.00 in   Clear
4:15 PM 82.4 °F 44.6 °F 26% 29.89 in 8.0 mi West 15.0 mph 29.9 mph 0.00 in   Clear
4:35 PM 82.4 °F 42.8 °F 25% 29.88 in 10.0 mi West 24.2 mph 29.9 mph 0.00 in   Clear
4:55 PM 82.4 °F 42.8 °F 25% 29.87 in 8.0 mi West 13.8 mph 29.9 mph 0.00 in   Clear
5:15 PM 82.4 °F 44.6 °F 26% 29.87 in 8.0 mi West 16.1 mph 27.6 mph 0.00 in   Clear
5:35 PM 82.4 °F 44.6 °F 26% 29.87 in 10.0 mi West 20.7 mph 27.6 mph 0.00 in   Clear
5:55 PM 80.6 °F 42.8 °F 26% 29.87 in 10.0 mi WSW 20.7 mph 25.3 mph 0.00 in   Clear
6:15 PM 80.6 °F 44.6 °F 28% 29.87 in 10.0 mi West 20.7 mph 26.5 mph 0.00 in   Clear
6:35 PM 80.6 °F 44.6 °F 28% 29.87 in 10.0 mi West 20.7 mph 26.5 mph 0.00 in   Clear
6:55 PM 80.6 °F 42.8 °F 26% 29.87 in 10.0 mi West 18.4 mph 26.5 mph 0.00 in   Clear
7:15 PM 80.6 °F 44.6 °F 28% 29.86 in 10.0 mi West 19.6 mph 26.5 mph 0.00 in   Clear
7:35 PM 78.8 °F 44.6 °F 30% 29.87 in 10.0 mi West 12.7 mph 25.3 mph 0.00 in   Clear
7:55 PM 78.8 °F 44.6 °F 30% 29.87 in 10.0 mi WNW 15.0 mph 19.6 mph 0.00 in   Clear
8:15 PM 78.8 °F 46.4 °F 32% 29.87 in 10.0 mi West 10.4 mph - 0.00 in   Clear
8:35 PM 77.0 °F 46.4 °F 34% 29.88 in 10.0 mi West 10.4 mph - 0.00 in   Clear
8:55 PM 75.2 °F 46.4 °F 36% 29.88 in 10.0 mi West 10.4 mph - 0.00 in   Clear
9:15 PM 73.4 °F 46.4 °F 38% 29.89 in 10.0 mi West 8.1 mph - 0.00 in   Clear
9:35 PM 71.6 °F 46.4 °F 41% 29.89 in 10.0 mi WNW 8.1 mph - 0.00 in   Clear
9:55 PM 69.8 °F 46.4 °F 43% 29.90 in 10.0 mi WNW 8.1 mph - 0.00 in   Clear
10:15 PM 69.8 °F 46.4 °F 43% 29.91 in 10.0 mi West 8.1 mph - 0.00 in   Clear
10:35 PM 64.4 °F 46.4 °F 52% 29.91 in 10.0 mi West 6.9 mph - 0.00 in   Clear
10:55 PM 62.6 °F 48.2 °F 59% 29.92 in 10.0 mi West 9.2 mph - 0.00 in   Clear
11:15 PM 62.6 °F 48.2 °F 59% 29.92 in 10.0 mi West 6.9 mph - 0.00 in   Clear
11:35 PM 62.6 °F 46.4 °F 55% 29.92 in 10.0 mi WSW 8.1 mph - 0.00 in   Clear
11:55 PM 60.8 °F 48.2 °F 63% 29.92 in 10.0 mi WSW 6.9 mph - 0.00 in   Clear